User: anonymous   Login
Location: Unspecified
(0.0000°N, 0.0000°E)
Time: 13:37:01
(UTC+02:00)
Language:

Resurs 01 Rocket - Orbit

View from above orbital plane
View from above orbital plane
View from above satellite
View from above satellite

Ground track
Ground track

The orbit data is extracted from the following two-line orbital elements,

1 23343U 94074B   16240.19143707 -.00000011  00000-0  60431-5 0  9996
2 23343  98.1895 267.7327 0005720 301.3930 100.2802 14.76668090173443
Epoch (UTC): 27 August 2016 04:35:40
Eccentricity: 0.0005720
inclination: 98.1895°
perigee height: 636 km
apogee height: 644 km
right ascension of ascending node: 267.7327°
argument of perigee: 301.3930°
revolutions per day: 14.76668090
mean anomaly at epoch: 100.2802°
orbit number at epoch: 17344

The dashed part of the orbit path shows where the satellite is in the earth's shadow,  

DLR